Location: Unspecified
(52.4292°N, 19.3359°E)
Time: 15:42:40
(UTC+02:00)

Transit 2A Rocket - Pass Details

Date: 29 May 2024
Orbit: 583 x 910 km, 66.7° (Epoch: 22 June)

Event Time Altitude Azimuth Distance (km) Brightness Sun altitude
Rises 10:41:50 0° 320° (NW) 3,394 8.0 51.8°
Reaches altitude 10° 10:44:15 10° 322° (NW) 2,496 7.4 52.1°
Maximum altitude 10:50:06 76° 49° (NE) 921 6.4 52.7°
Drops below altitude 10° 10:56:11 10° 135° (SE) 2,591 8.6 53.4°
Sets 10:58:44 0° 137° (SE) 3,532 9.0 53.6°
